GFSGBSN_925_temp_159.txt.gz
Temp
11 11 11 11 11 12 13 13 13 13 14 13 12 12 12 12 12 13 13 13 13 13 12 12 11 12 14 14 17 21 20 19 20 19 19 20 20 21 21 21 22 21 23 22 22 22 22
10 10 10 10 10 11 11 11 12 12 12 12 13 13 12 13 12 12 13 13 12 12 12 11 11 12 13 13 17 18 18 19 18 18 19 19 20 21 21 21 21 21 21 22 22 22 21
10 10 10 10 10 9 10 10 10 10 10 11 11 11 12 12 12 12 12 12 13 13 13 12 12 12 12 14 17 18 17 17 18 16 18 18 20 20 20 21 21 21 21 22 23 23 23
9 9 9 9 9 9 9 9 9 10 10 9 9 10 10 10 10 10 11 11 12 12 12 11 11 11 13 15 16 15 16 15 15 16 16 17 19 20 20 21 21 21 20 21 22 22 22
9 9 9 9 9 9 9 9 9 9 9 9 9 9 10 10 10 10 10 11 12 12 11 10 11 11 14 15 15 17 17 15 17 17 15 17 18 19 20 20 20 19 21 20 21 22 21
9 9 9 9 9 9 9 9 9 8 8 8 8 9 9 9 9 10 10 11 12 11 11 10 11 12 13 16 16 17 17 16 17 18 17 17 19 19 18 19 19 20 19 20 21 22 21
9 9 9 9 9 9 9 9 9 8 8 8 8 8 8 8 8 8 9 11 11 11 10 13 13 14 15 15 16 17 17 17 18 18 18 18 18 18 20 20 21 20 19 20 20 20 21
9 9 8 9 9 9 9 9 9 8 8 8 8 8 8 7 8 8 9 9 11 11 10 12 13 14 14 14 14 17 17 17 17 18 17 17 18 19 20 19 19 19 19 19 20 20 20
8 8 9 8 8 9 9 9 9 9 8 8 8 8 8 8 8 8 8 10 10 10 10 12 13 13 14 14 14 15 17 18 17 17 17 18 20 19 19 18 18 18 18 18 19 20 20
7 8 8 8 8 8 8 9 8 8 8 8 8 8 7 7 7 8 9 10 10 10 10 13 12 13 13 15 14 15 17 17 17 17 17 18 19 19 18 18 18 18 19 19 19 19 19
7 7 7 7 8 8 8 8 8 8 8 8 8 7 7 7 7 8 9 9 9 10 11 15 13 14 14 14 15 16 16 16 16 17 18 18 18 18 19 20 19 19 19 19 19 19 18
6 7 7 7 7 7 7 7 7 7 7 7 7 7 7 7 7 9 9 9 9 10 9 14 14 13 13 14 15 16 15 17 17 15 16 17 19 19 19 19 19 19 19 19 18 18 17
5 6 6 7 6 6 6 6 6 7 6 7 7 7 7 7 8 8 9 9 9 9 14 14 14 14 14 14 14 15 14 15 16 15 15 16 16 19 19 18 18 19 18 15 15 17 18
5 5 6 6 6 5 5 6 6 6 6 6 6 6 7 7 8 8 7 8 9 12 13 14 16 14 14 15 14 15 15 15 15 16 17 16 16 17 19 19 19 17 18 16 17 18 19
4 4 5 6 5 5 4 5 4 5 6 6 6 6 6 7 7 7 6 7 10 11 12 12 15 14 15 15 16 16 15 15 16 16 16 16 17 19 19 20 20 17 16 18 15 14 16
4 4 4 5 5 5 5 4 4 4 4 5 5 5 5 7 7 7 7 8 9 9 11 12 12 14 14 16 15 15 17 16 17 16 17 18 16 17 18 18 20 19 18 15 13 15 16
4 4 4 4 5 5 5 4 3 3 5 4 5 4 5 7 7 6 7 7 8 10 10 10 11 11 12 13 15 16 16 17 16 17 16 18 16 15 15 17 18 18 16 13 13 14 18
4 4 4 4 4 4 5 4 4 4 4 4 3 2 4 5 5 4 6 8 9 9 10 10 11 10 10 11 13 14 15 17 15 15 16 14 15 13 14 14 14 15 16 12 13 13 14
3 3 4 4 4 4 4 4 4 4 4 4 3 3 4 5 5 5 6 6 6 8 10 8 8 11 12 9 11 12 13 13 13 15 15 13 13 13 13 13 13 12 14 12 11 10 12
3 3 3 3 3 4 4 4 4 4 4 5 1 1 1 4 5 5 6 6 7 6 6 8 9 9 7 9 9 9 9 11 12 13 12 13 11 11 12 13 12 12 13 13 12 13 13
3 3 3 3 3 3 3 4 4 3 3 4 -1 -0 2 2 3 4 5 5 6 6 8 8 7 8 9 9 10 9 9 10 11 12 12 12 11 10 10 10 10 11 12 13 11 11 12
3 3 3 3 3 3 3 3 4 3 2 1 1 -0 0 2 3 3 4 5 5 5 4 6 7 9 8 8 9 10 10 9 8 9 8 11 11 10 10 12 12 10 11 11 12 12 13
3 3 3 3 3 3 3 3 4 3 2 0 -1 0 1 1 3 4 3 4 6 4 5 5 5 6 7 8 9 9 10 10 11 10 9 8 9 9 12 12 12 11 11 12 13 14 14
3 3 3 3 3 3 3 3 4 3 2 3 2 1 1 1 2 3 4 4 4 5 4 5 4 4 7 7 5 8 9 9 10 10 10 8 8 9 11 11 12 14 13 14 13 13 15
3 3 3 3 3 3 3 3 3 3 2 3 3 2 -1 0 3 3 3 3 4 4 4 4 5 6 7 6 6 7 7 8 9 10 9 9 9 9 10 11 12 14 13 13 12 14 15
3 3 3 3 3 3 3 3 3 3 3 2 3 3 0 0 2 4 3 3 2 2 3 5 6 7 7 5 6 7 8 9 9 10 10 9 9 9 8 9 11 13 13 13 14 13 14
3 3 3 3 2 3 3 3 3 3 3 2 2 3 2 0 2 3 2 3 3 3 3 4 5 5 6 6 6 6 8 10 10 10 9 8 8 8 9 10 11 14 13 13 13 14 13
3 3 3 3 3 3 3 3 3 3 3 2 2 2 3 1 2 3 4 3 3 3 3 4 4 4 5 6 7 8 7 8 9 11 11 10 9 9 10 10 10 13 12 13 15 12 13
3 3 3 3 3 3 3 3 3 3 3 2 2 2 2 2 2 3 3 4 4 5 3 3 4 4 4 4 5 6 7 7 8 9 8 10 11 11 11 12 11 11 11 13 12 13 12

GFSGBSN_925_temp_162.txt.gz
Temp
11 11 11 11 11 12 12 12 13 13 13 13 13 13 13 13 13 13 13 13 13 13 12 12 12 12 14 19 21 22 20 19 20 20 22 24 24 25 25 26 26 26 27 28 27 27 27
11 11 10 11 10 10 11 11 12 12 12 12 12 12 12 12 12 13 13 13 13 12 12 12 12 13 14 16 19 19 19 19 20 20 22 23 24 24 24 24 25 26 26 26 27 27 27
10 10 10 10 10 10 10 10 10 10 10 10 10 11 11 11 12 12 12 12 12 13 13 13 13 12 13 16 18 19 19 18 19 19 21 22 22 23 25 24 26 24 24 26 27 27 27
10 10 10 10 10 9 9 9 9 9 10 9 9 9 9 10 10 10 10 11 11 12 12 12 11 11 13 16 17 17 18 18 19 18 18 19 21 22 23 24 24 24 25 24 28 27 27
10 10 10 9 9 9 9 9 9 9 9 9 9 9 9 9 9 10 10 11 12 12 11 11 11 12 15 17 17 18 18 19 19 19 18 19 20 22 23 22 23 25 24 26 26 27 27
9 9 9 9 10 9 9 9 9 9 9 8 8 9 9 9 9 10 10 11 11 11 11 10 11 13 14 19 19 18 19 18 19 20 20 19 21 22 22 24 24 26 26 25 25 27 26
9 9 9 9 9 9 9 9 9 9 9 8 8 8 8 8 8 8 9 11 13 14 11 17 15 15 19 18 17 19 19 20 21 21 21 21 22 22 24 25 25 26 24 24 26 26 23
9 9 9 9 9 9 9 9 9 9 9 8 8 8 8 8 8 8 8 10 12 10 12 15 15 16 17 17 17 20 19 20 21 21 22 22 21 24 25 25 24 23 23 24 25 25 24
8 8 8 8 9 9 9 9 9 9 9 9 9 8 8 8 8 8 10 10 10 11 12 15 16 17 18 18 17 18 20 20 20 21 22 22 24 24 23 23 22 22 23 23 24 24 25
8 8 8 8 8 8 8 9 9 9 9 9 9 8 8 8 8 9 11 10 10 10 14 18 16 17 17 17 17 19 20 20 20 20 21 22 24 23 23 22 23 22 24 23 22 23 23
7 7 7 8 8 8 8 8 8 8 8 9 9 8 8 8 9 10 11 10 10 11 13 20 16 17 17 16 18 19 19 19 18 20 20 21 22 21 22 22 22 22 23 23 22 22 23
6 6 7 7 7 7 7 7 7 7 8 8 8 8 8 7 7 9 9 9 10 12 12 18 17 16 15 16 17 18 18 19 19 18 19 20 23 21 22 22 22 22 21 21 21 21 20
5 6 6 7 7 7 7 7 7 7 7 7 7 8 7 8 10 9 9 10 10 12 17 18 18 17 17 18 17 18 16 16 18 15 15 19 19 21 21 19 20 19 18 16 16 16 20
5 5 5 6 6 6 7 6 6 6 6 6 7 7 7 8 8 7 8 9 10 15 16 18 18 18 17 18 18 18 18 16 18 19 20 20 20 21 22 20 19 19 17 18 19 21 23
5 5 5 5 6 6 6 6 5 5 5 6 6 6 7 8 7 7 7 9 11 15 17 15 17 16 18 18 18 18 18 19 20 20 18 20 21 22 22 22 21 18 17 19 17 17 19
4 4 4 5 5 6 5 5 5 4 4 4 6 7 8 7 7 7 7 8 9 13 13 14 15 17 17 19 18 18 19 20 20 20 21 20 17 20 21 21 21 19 19 15 13 17 17
4 4 4 4 4 5 5 5 5 5 3 4 4 7 8 6 7 7 7 9 10 11 11 11 14 14 16 16 17 18 19 20 20 20 20 19 17 16 18 18 20 19 17 14 14 16 18
4 4 4 4 4 4 5 4 4 4 3 3 4 5 6 5 7 6 7 8 8 11 10 9 11 12 13 14 14 16 17 19 15 18 19 20 17 16 17 19 16 16 15 14 14 15 15
4 4 4 4 4 4 4 4 3 3 3 3 5 7 5 5 7 7 9 9 7 8 9 8 10 12 14 14 12 15 15 14 13 14 17 19 17 16 16 16 15 15 16 13 12 10 13
3 3 3 4 4 4 4 4 3 2 3 3 4 5 6 4 7 7 8 8 8 6 7 8 7 11 10 9 10 10 10 11 11 12 11 14 16 16 17 16 12 12 12 12 11 12 13
3 3 3 3 3 4 3 4 4 3 2 3 4 5 7 5 6 6 7 7 8 8 9 8 7 9 10 9 9 8 11 10 8 9 9 7 13 13 13 15 14 13 13 13 11 12 12
3 3 3 3 3 4 4 3 4 3 2 1 3 4 5 7 7 6 7 6 7 8 5 5 5 7 6 8 10 10 9 11 10 9 9 7 9 11 11 15 16 13 14 15 13 12 12
3 3 3 3 3 3 4 3 4 3 2 0 1 3 7 6 6 7 7 7 7 7 8 5 4 5 7 6 6 8 9 10 11 10 10 9 9 10 12 15 15 13 14 14 16 16 16
3 3 3 3 3 3 3 3 4 3 2 3 3 5 6 6 6 6 6 7 7 7 6 7 6 4 7 7 9 10 10 10 11 11 11 9 9 10 11 13 11 15 17 17 16 17 18
3 3 3 3 3 3 3 3 3 3 2 3 3 6 5 5 7 7 6 6 7 7 6 6 7 8 8 7 6 7 9 10 11 12 12 11 11 10 10 12 14 15 16 16 15 17 19
3 3 3 3 3 3 3 3 3 3 3 2 3 5 6 5 6 7 7 7 6 6 6 6 7 8 8 7 7 6 9 11 11 12 13 12 11 10 11 10 10 16 17 16 16 14 19
3 3 3 3 3 3 3 3 3 3 3 2 3 3 5 4 6 6 5 6 7 7 7 8 7 7 8 7 7 7 8 11 9 11 11 10 8 9 10 10 13 16 17 17 13 15 18
3 3 3 3 3 3 3 3 3 3 3 2 3 3 5 4 6 5 6 6 7 7 6 8 7 7 7 6 8 8 8 10 9 12 12 11 9 10 10 10 10 17 17 14 17 18 17
3 3 3 3 3 3 3 3 3 3 3 2 3 2 4 5 5 4 5 6 7 7 7 7 6 6 6 5 5 6 5 7 9 10 14 12 13 13 13 14 15 14 15 16 15 15 16

GFSGBSN_925_temp_168.txt.gz
Temp
13 13 13 13 13 13 13 13 13 13 13 13 13 13 13 13 13 12 12 12 13 13 13 12 12 12 13 19 21 23 23 24 23 24 25 26 26 26 26 28 29 29 30 31 31 31 31
13 12 12 12 12 12 12 12 13 13 13 13 13 13 13 13 12 12 13 12 12 12 12 12 13 12 13 16 21 23 24 24 24 24 25 26 26 27 26 26 26 28 28 29 30 30 30
12 12 12 12 12 11 11 11 11 11 11 11 12 12 12 12 12 12 11 12 12 12 12 12 12 11 13 16 19 21 21 22 23 23 24 24 25 25 26 25 27 27 27 28 29 29 29
11 11 11 11 11 11 11 10 10 10 10 10 10 10 10 10 10 11 11 11 11 11 12 12 12 12 13 15 17 19 20 21 22 23 23 23 23 24 24 25 25 24 25 25 27 29 30
10 10 10 10 11 10 10 10 10 10 10 10 10 10 10 10 10 10 11 11 11 11 12 12 12 14 16 20 18 19 20 21 22 24 23 24 24 23 24 23 23 24 23 25 27 30 30
10 10 10 10 10 10 10 10 9 9 9 9 9 9 9 9 10 10 11 11 12 12 13 12 14 14 16 20 22 23 23 23 24 24 24 23 23 22 23 23 22 24 26 27 27 30 31
10 10 10 10 10 10 9 9 9 9 9 9 9 9 9 9 9 10 11 13 15 15 14 16 18 17 23 23 23 23 24 24 24 23 22 24 22 22 24 25 25 25 25 26 28 30 30
10 10 10 10 9 9 9 9 9 9 9 9 9 8 9 9 9 9 9 14 16 14 14 17 17 19 19 20 20 22 23 22 23 21 23 23 23 24 26 26 26 26 26 26 27 29 29
10 9 9 9 9 9 9 9 9 9 9 9 9 8 8 9 9 9 11 14 15 15 14 17 19 19 19 21 20 21 23 23 22 22 23 22 24 25 25 25 25 26 25 26 26 28 29
9 9 9 9 9 9 9 9 9 8 9 9 8 8 8 9 8 12 14 14 15 14 14 18 21 21 21 22 20 23 22 22 22 21 22 22 24 24 25 25 25 23 26 27 27 25 24
9 9 8 8 8 9 9 9 9 9 9 9 9 8 9 9 10 13 14 14 13 13 12 22 23 24 23 21 22 24 23 22 20 21 21 21 23 23 24 24 26 25 26 26 24 22 21
8 8 8 8 8 8 8 8 8 9 9 9 9 9 8 8 9 11 13 12 12 12 13 19 22 21 21 21 22 23 22 23 23 21 22 22 24 24 25 26 26 25 24 22 21 18 17
7 7 7 7 7 7 8 8 8 8 8 8 8 8 8 10 11 12 12 12 10 11 19 19 21 21 21 21 21 22 21 21 20 19 20 21 22 24 24 23 24 24 22 18 17 17 18
6 6 6 6 6 7 7 7 7 7 7 8 8 8 8 9 10 11 10 9 10 15 16 22 23 22 21 21 21 21 21 20 22 21 21 21 20 23 24 23 23 23 22 19 18 20 21
5 5 5 6 6 6 6 7 7 7 7 7 7 7 8 9 9 10 8 8 10 14 18 19 16 17 18 21 22 22 21 19 22 21 20 20 21 24 26 25 24 22 20 22 19 21 19
5 5 5 5 5 5 6 6 6 6 6 7 7 6 8 9 9 9 8 8 10 14 16 14 11 16 16 19 20 21 21 22 20 21 15 18 17 22 24 23 23 22 23 19 17 16 17
5 5 5 5 5 5 5 5 5 5 6 6 4 4 7 9 9 7 7 8 11 14 14 10 11 13 15 16 16 17 17 19 15 16 17 16 15 18 20 20 19 20 18 18 15 16 18
4 5 5 5 5 5 5 5 5 5 5 5 3 5 8 8 7 5 7 10 12 14 14 11 11 12 13 14 14 15 16 12 15 14 14 13 13 15 16 18 20 19 17 18 15 15 14
4 4 4 4 4 5 5 5 5 5 4 4 4 6 7 6 7 7 10 11 12 12 13 8 9 8 8 11 10 14 14 11 12 12 11 12 14 14 17 16 18 16 17 14 11 12 13
4 4 4 4 4 4 4 5 5 5 4 4 3 5 6 6 6 6 10 11 11 13 13 13 8 10 10 11 12 9 10 13 11 12 10 13 14 12 12 12 14 12 15 16 13 13 15
4 4 4 4 4 4 4 4 5 4 3 2 2 5 7 6 6 7 8 8 11 11 10 8 10 10 10 9 10 10 10 10 12 11 13 12 12 12 12 13 15 15 16 14 13 13 13
4 4 4 4 4 4 4 4 4 4 3 1 3 6 8 6 9 8 8 7 9 10 8 8 7 8 8 7 7 7 7 8 7 10 12 11 10 10 9 13 14 13 14 15 15 14 14
4 4 4 4 4 4 4 4 4 4 3 1 3 5 5 6 8 7 7 8 9 10 10 10 9 8 9 9 6 7 9 9 9 9 10 8 9 10 10 13 13 11 14 16 15 18 18
3 4 4 4 4 4 4 4 4 4 3 4 5 6 5 6 8 7 9 8 9 10 9 10 10 9 10 9 9 9 10 10 11 12 12 11 10 10 10 11 9 14 17 16 14 13 16
3 3 4 4 3 3 4 4 4 4 3 4 6 5 5 7 9 8 8 7 9 10 9 9 11 11 11 10 7 7 8 10 12 12 13 13 11 10 10 11 12 13 15 16 16 14 18
3 3 3 4 4 3 3 4 4 3 4 3 4 5 6 5 8 9 8 9 9 9 9 10 11 12 10 8 7 6 7 9 9 13 15 14 12 11 10 10 10 14 17 19 18 13 18
4 3 3 4 3 4 3 3 3 3 4 3 4 5 5 5 9 8 7 7 9 9 9 10 9 8 9 7 6 6 7 10 9 10 12 10 8 9 9 10 12 15 16 17 11 15 18
4 3 3 3 3 3 3 3 3 3 4 3 4 5 6 6 8 10 10 10 10 10 9 9 8 7 8 6 6 7 7 9 9 11 11 11 11 10 9 9 10 16 15 14 15 16 17
4 3 3 3 3 3 3 3 3 3 4 3 4 4 5 5 7 7 9 10 10 10 9 8 7 8 5 5 6 6 6 6 8 9 13 11 11 9 8 9 11 11 16 14 11 14 14

GFSGBSN_925_temp_171.txt.gz
Temp
14 13 13 13 13 13 13 13 13 13 13 13 13 13 13 13 13 12 12 12 13 13 13 13 13 12 13 15 18 21 21 22 22 23 23 23 23 23 22 23 24 23 24 25 26 26 26
13 13 13 13 13 13 12 13 13 13 13 13 12 12 12 12 12 12 12 13 13 13 12 12 12 12 12 14 18 20 20 22 22 23 23 23 23 23 23 23 22 24 24 24 25 25 26
13 13 12 12 12 12 12 12 12 12 12 12 12 12 12 12 12 12 12 12 12 12 12 12 12 11 12 14 18 20 21 21 22 19 20 22 23 22 22 21 23 23 22 23 23 24 24
12 12 12 12 12 11 11 11 11 11 11 11 11 11 10 10 11 11 11 11 12 12 12 12 12 11 12 15 18 17 18 17 19 20 20 21 22 21 21 21 22 21 21 20 23 24 25
11 11 11 11 11 11 11 11 10 10 10 10 10 10 10 10 10 10 11 11 12 12 12 12 12 11 14 17 16 19 18 18 19 20 22 22 23 21 20 19 19 19 18 20 22 24 25
11 11 11 11 11 10 10 10 10 10 9 9 9 9 9 9 10 10 11 12 13 11 12 11 12 13 14 18 20 20 21 20 21 21 22 21 20 19 18 18 17 19 19 20 21 24 25
10 10 10 10 10 10 10 9 9 9 9 9 9 9 9 9 10 10 11 12 11 11 12 13 14 14 18 19 20 22 23 23 22 21 19 20 19 18 18 19 20 21 21 21 23 25 25
10 10 10 10 10 10 10 9 9 9 9 9 9 9 9 9 10 10 10 10 14 14 12 15 14 15 16 17 17 19 20 19 20 19 20 20 19 21 22 22 22 22 22 22 24 25 25
9 9 10 9 10 10 9 9 9 9 9 9 9 9 9 9 10 10 11 12 14 14 12 14 16 16 16 17 16 17 19 19 19 19 20 19 21 22 22 22 22 22 22 23 23 24 25
9 9 10 9 9 9 9 9 9 9 9 9 9 9 9 9 9 11 12 13 14 14 9 14 17 17 18 18 17 19 19 19 19 18 20 20 22 22 22 22 23 21 24 24 24 23 21
9 9 9 9 9 9 9 9 9 9 9 9 9 9 9 9 9 10 12 12 13 13 8 18 20 21 20 18 20 21 21 19 17 18 19 19 20 20 21 22 23 22 23 23 23 19 17
8 8 8 8 9 9 8 8 8 9 9 9 9 9 8 8 9 11 12 12 12 10 9 17 21 20 20 18 19 21 21 20 20 18 18 19 20 20 20 22 22 23 22 21 20 18 17
8 8 8 8 8 8 8 8 8 8 8 8 9 9 8 9 9 11 11 11 8 10 17 17 19 20 19 19 19 19 19 18 17 16 17 18 18 20 21 19 21 21 20 16 17 17 18
7 7 7 7 7 7 7 8 8 8 8 8 8 8 8 8 10 10 10 8 9 13 14 18 17 16 16 18 19 20 19 18 19 19 18 17 16 19 21 19 19 19 19 18 17 17 19
6 6 6 6 6 7 7 7 7 7 7 7 7 7 7 8 9 9 7 8 9 11 15 15 13 15 15 18 18 18 19 19 19 20 17 16 18 21 22 22 21 19 18 20 18 19 17
5 5 5 5 6 6 6 6 7 7 7 7 7 7 7 8 8 8 7 8 9 12 13 13 10 12 13 15 15 16 16 17 16 18 14 14 13 16 18 19 19 20 21 18 18 16 17
5 5 5 5 5 6 6 6 6 6 6 6 5 4 6 8 8 7 7 7 10 11 11 12 10 10 12 12 13 13 14 13 13 14 15 12 13 15 17 18 18 18 17 17 16 15 15
5 5 5 5 5 5 5 5 5 5 6 6 3 4 7 8 6 5 7 8 11 11 12 10 8 10 10 10 10 12 11 13 12 12 11 11 10 12 14 16 17 16 15 14 14 14 13
4 5 5 5 5 5 5 5 5 5 5 4 4 4 7 7 6 6 7 7 9 10 12 8 8 8 9 9 9 10 10 11 10 10 9 9 11 11 14 16 13 12 11 11 11 10 13
4 4 5 5 5 5 5 5 5 5 5 5 3 4 4 5 5 6 7 8 8 10 11 11 7 7 7 7 9 8 9 12 10 11 9 9 10 10 10 12 11 10 12 13 11 12 12
4 4 4 4 4 4 4 5 5 5 5 4 3 4 5 4 5 5 6 6 7 7 10 7 7 8 9 8 9 9 8 8 10 10 8 8 9 11 11 12 13 11 13 12 13 13 12
4 4 4 4 4 4 4 4 4 5 3 2 3 4 5 5 6 5 6 6 7 7 6 6 6 6 7 7 7 6 6 7 7 8 7 7 8 8 7 12 12 12 13 13 13 14 14
4 4 4 4 4 4 4 4 4 3 3 2 2 4 4 5 6 5 6 7 7 8 5 7 8 8 8 7 6 7 7 7 7 7 7 6 7 8 9 12 11 9 11 13 15 15 14
4 4 4 4 4 4 4 4 4 3 3 4 4 5 4 3 4 5 8 8 7 6 6 8 9 8 8 8 8 7 7 8 7 8 9 7 7 7 8 9 8 12 14 14 14 15 15
3 3 3 4 4 4 4 4 4 4 3 4 5 4 3 4 5 7 7 7 8 8 7 7 9 9 8 7 4 4 4 7 8 9 9 9 8 8 6 7 9 12 13 13 13 13 16
4 3 3 4 4 4 4 4 4 4 4 3 5 5 4 4 4 5 6 6 5 5 7 8 9 9 9 6 3 1 3 7 7 10 11 10 9 8 6 7 8 12 14 13 14 11 13
4 4 3 3 3 4 3 3 4 4 4 3 4 5 4 4 5 7 4 6 8 5 4 8 8 6 6 2 1 0 4 8 6 8 8 8 7 8 8 8 9 12 12 15 10 9 13
4 4 4 3 3 4 3 3 3 3 4 3 3 5 3 3 5 8 8 6 7 6 3 6 4 4 3 3 1 1 1 3 5 8 8 8 8 6 8 8 9 9 8 8 7 10 11
4 4 4 4 3 3 3 3 3 3 4 3 4 4 4 3 4 6 7 8 8 9 5 6 4 4 3 3 3 4 4 4 5 4 8 7 7 6 8 8 9 9 10 11 10 10 9

GFSGBSN_925_temp_174.txt.gz
Temp
14 14 14 14 14 13 14 13 13 13 13 13 13 13 13 13 13 13 12 12 12 13 13 13 12 12 13 14 17 21 21 21 20 21 21 21 22 21 20 21 21 22 23 23 23 23 23
14 14 14 14 13 13 13 13 13 13 13 13 13 13 12 12 12 12 12 12 12 12 12 12 11 11 12 13 18 20 20 20 20 20 21 21 21 21 20 21 21 22 22 21 22 22 22
14 14 14 14 13 13 13 13 12 12 12 12 12 12 12 12 12 12 12 12 12 12 12 12 11 11 12 14 18 19 19 19 19 17 17 19 20 20 20 19 21 21 20 21 22 22 22
14 14 14 13 13 13 12 12 12 11 11 11 11 11 11 11 11 11 11 12 12 12 11 11 11 10 11 16 17 17 17 17 19 19 17 19 20 19 19 20 20 19 19 19 22 23 22
13 13 13 13 12 12 11 11 11 11 10 10 10 10 10 10 11 11 11 12 12 12 11 11 11 10 13 16 15 19 17 16 18 19 18 19 20 18 19 18 17 17 16 18 20 22 22
13 13 12 12 11 11 11 11 10 10 10 10 10 10 10 10 10 11 12 12 13 11 11 10 11 11 12 16 18 19 19 19 17 19 19 18 18 17 17 16 17 17 16 16 18 22 21
12 12 12 11 10 10 10 10 10 10 9 9 9 9 10 10 10 11 12 13 11 10 10 11 12 13 16 17 18 19 20 19 18 19 18 19 16 17 18 18 19 19 18 19 20 21 21
12 11 11 10 10 9 9 10 10 9 9 9 9 9 10 10 10 10 10 9 12 12 10 12 14 14 14 15 15 17 18 18 18 17 18 18 17 19 20 19 19 19 18 18 20 21 22
10 10 10 9 9 9 9 9 9 9 9 9 9 9 9 10 10 10 11 12 13 13 10 13 14 14 14 15 14 15 17 17 17 17 18 17 19 20 20 19 19 19 19 19 20 22 22
10 10 9 9 9 9 8 9 9 9 9 9 9 9 9 9 10 10 11 12 14 13 9 12 14 15 16 16 15 17 17 17 16 17 17 17 19 19 19 19 20 19 21 21 21 20 19
9 9 9 9 9 9 9 9 9 9 9 9 9 9 9 9 9 10 11 12 13 12 8 16 17 18 17 15 18 19 18 16 16 17 17 18 19 19 18 19 20 20 21 20 20 19 18
8 8 8 8 8 9 9 9 9 9 9 9 9 9 8 9 9 11 11 12 12 9 8 15 19 16 16 17 17 19 17 17 17 16 17 18 19 18 19 20 19 20 19 19 18 18 18
8 8 8 8 8 8 8 8 9 9 8 9 9 8 8 9 9 10 11 10 8 8 15 16 17 15 15 16 17 18 17 16 16 14 14 16 16 18 19 17 18 17 16 16 16 17 18
8 8 7 7 7 7 8 8 8 8 8 8 8 8 8 9 9 9 10 8 9 12 13 15 15 14 15 16 16 17 17 16 16 17 17 15 16 18 18 17 18 16 17 16 16 17 18
7 7 7 7 7 7 7 7 8 8 8 8 7 7 7 8 8 9 6 8 7 11 13 12 13 13 14 15 15 15 16 16 17 17 16 14 15 18 19 19 18 17 16 18 16 17 16
7 6 6 6 6 7 7 7 7 7 7 7 7 6 6 8 8 8 6 7 8 11 12 11 10 11 12 12 13 13 14 13 12 13 12 12 13 14 16 17 18 17 18 15 15 15 16
5 5 5 5 6 6 6 6 7 7 7 7 7 4 7 8 8 5 6 7 9 11 11 10 11 11 10 11 11 11 12 12 10 10 12 12 10 13 15 17 16 17 16 16 15 15 16
5 5 5 5 5 5 5 6 6 6 6 6 4 4 7 6 6 5 6 8 10 10 11 10 9 10 10 10 11 11 11 10 9 7 8 8 10 12 14 16 15 13 11 11 13 14 13
4 4 4 5 5 5 5 5 6 6 6 6 4 4 6 7 5 6 8 8 9 9 10 9 8 8 9 8 9 8 10 9 10 10 8 8 9 10 12 14 12 11 10 9 9 10 12
4 4 4 5 5 5 5 5 5 6 5 6 3 4 3 4 4 5 6 7 8 8 8 9 7 8 8 8 7 7 9 11 10 10 10 9 9 9 10 11 12 10 10 10 10 9 10
4 4 4 4 5 5 5 5 5 5 5 6 3 4 4 5 4 5 6 6 7 7 7 6 8 8 8 7 7 7 7 8 9 9 7 6 7 8 8 9 11 11 11 12 9 10 10
4 4 4 4 4 4 5 5 5 5 4 4 2 3 3 3 5 4 6 6 6 6 6 7 6 6 6 6 7 7 6 6 6 8 7 6 6 7 7 9 11 9 11 11 12 12 12
4 4 4 4 4 4 4 4 5 4 3 2 1 3 4 4 4 3 4 5 6 6 7 7 6 6 6 5 6 7 7 7 7 7 6 4 4 5 7 9 8 8 10 11 12 13 13
3 3 4 4 4 4 4 4 4 4 4 3 2 3 3 3 4 5 7 6 6 6 5 6 5 6 8 7 7 6 5 6 6 6 6 6 6 6 6 8 7 11 12 13 13 13 14
3 3 3 4 4 4 4 4 4 3 3 4 5 3 3 4 5 5 6 6 6 6 5 6 8 8 6 6 3 3 2 5 7 7 6 6 5 4 5 8 9 10 12 12 12 12 11
4 4 3 3 4 4 4 4 4 4 3 4 5 5 2 3 4 6 6 6 4 3 5 6 8 6 7 4 1 1 3 6 6 8 9 8 6 6 4 6 7 10 9 10 11 9 9
4 4 4 4 3 4 4 4 4 3 3 3 4 5 3 2 4 4 4 5 5 3 3 6 6 6 5 -1 -3 -0 3 6 5 6 7 5 3 6 6 6 8 8 9 10 8 7 7
4 4 4 4 4 3 4 4 4 3 4 3 3 4 4 2 3 5 6 6 5 4 2 5 3 3 1 -0 -0 -2 -1 2 4 6 7 6 5 5 6 7 7 7 9 8 7 7 6
4 4 4 4 4 3 3 3 3 3 4 3 3 4 4 3 3 4 6 6 7 7 3 4 3 3 1 -0 1 2 4 3 2 2 7 5 5 4 6 6 7 8 9 8 8 8 8